User: anonymous   Login
Location: Unspecified
(0.0000°N, 0.0000°E)
Time: 01:56:05
(UTC+00:00)
Language:

Kosmos-887 - Orbit

View from above orbital plane
View from above orbital plane
View from above satellite
View from above satellite

Ground track
Ground track

The orbit data is extracted from the following two-line orbital elements,

1  9637U 76128A   18021.87786494 +.00000044 +00000-0 +29089-4 0  9994
2  9637 082.9408 279.5855 0044886 182.1854 226.4768 13.76206191061635
Epoch (UTC): 21 January 2018 21:04:07
Eccentricity: 0.0044886
inclination: 82.9408°
perigee height: 944 km
apogee height: 1010 km
right ascension of ascending node: 279.5855°
argument of perigee: 182.1854°
revolutions per day: 13.76206191
mean anomaly at epoch: 226.4768°
orbit number at epoch: 6163

The dashed part of the orbit path shows where the satellite is in the earth's shadow,  

DLR